Temperature
20 20 20 20 21 20 19 17 17 18 19 19 18 18 20 20 20 20 19 19 19 18 18 17 17 16 16 15 15 15 14 14 13 13 13 13 12 12 12 12 12 12 12 12
21 22 21 21 20 20 19 19 18 19 19 19 20 20 20 20 20 20 20 19 19 19 18 18 17 17 16 16 15 15 14 14 14 13 13 13 13 12 12 12 12 12 12 12
18 20 21 20 20 20 20 20 19 19 19 19 19 19 20 21 20 20 20 20 19 19 18 18 17 17 17 16 16 15 15 14 14 14 13 13 13 13 12 12 12 12 12 12
17 20 20 19 20 20 20 20 19 20 19 19 20 22 22 22 21 21 20 20 19 19 18 18 18 17 17 16 16 15 15 15 14 14 14 13 13 13 13 13 12 12 12 12
16 18 19 20 21 21 20 20 20 20 20 21 21 20 20 21 21 21 20 20 19 19 18 18 18 17 17 16 16 16 15 15 15 14 14 14 14 13 13 13 13 13 12 12
16 19 19 20 21 22 21 21 21 20 19 20 19 17 18 21 21 20 20 19 19 19 18 18 17 17 17 17 16 16 16 15 15 15 14 14 14 14 14 13 13 13 13 13
16 17 17 19 21 22 20 20 22 22 22 21 20 20 22 21 21 20 20 19 19 18 18 18 17 17 17 16 16 16 16 15 15 15 15 14 14 14 14 14 13 13 13 13
15 17 18 20 21 20 20 22 23 23 23 23 22 22 21 21 20 20 19 19 18 18 18 18 17 17 17 16 16 16 16 15 15 15 15 15 14 14 14 14 14 14 13 13
16 18 20 22 23 24 24 23 23 23 23 23 22 21 21 20 20 20 19 19 18 18 18 17 17 17 17 16 16 16 15 15 15 15 15 15 14 14 14 14 14 14 14 14
17 17 20 22 23 24 24 24 24 24 23 23 22 21 21 20 20 19 19 19 18 18 17 17 17 17 16 16 16 16 15 15 15 15 15 15 14 14 14 14 14 14 14 14
17 18 20 21 23 24 24 24 23 23 23 22 22 21 21 20 20 19 19 18 18 18 17 17 16 16 16 16 16 15 15 15 15 14 14 14 14 14 14 14 13 13 13 13
18 20 18 22 24 24 23 23 23 23 22 22 22 21 21 20 19 19 18 18 18 17 17 16 16 16 16 15 15 15 15 14 14 14 14 14 14 14 13 13 13 13 13 13
23 24 23 24 24 23 23 23 23 22 22 22 21 21 20 20 19 18 18 17 17 17 16 16 15 15 15 15 14 14 14 13 13 13 13 13 13 13 13 13 13 13 13 13
23 23 22 23 24 24 23 23 22 22 21 21 20 20 19 19 18 18 17 17 16 16 15 15 15 14 14 14 13 13 13 12 12 12 12 12 12 12 12 12 12 12 12 12
22 22 23 23 23 23 23 22 21 21 20 20 19 19 18 18 17 17 16 16 15 15 15 14 14 13 13 13 12 12 12 11 11 11 11 11 11 11 11 11 11 11 11 11
22 22 22 22 22 22 22 21 21 20 20 19 18 18 17 17 16 16 15 15 14 14 14 13 13 12 12 12 11 11 11 10 10 10 10 10 10 10 9 9 9 9 9 9
20 20 20 21 21 21 21 21 21 20 19 18 18 17 16 15 15 14 14 13 13 13 12 12 12 11 11 10 10 10 9 9 9 9 9 8 8 8 8 8 8 8 7 7
20 20 21 21 21 21 21 20 20 19 19 18 17 16 15 15 14 13 13 12 12 11 11 11 10 10 10 9 9 9 8 8 8 8 7 7 7 7 7 7 6 6 6 6
19 19 20 20 21 21 20 20 19 18 18 17 16 15 14 14 13 13 12 11 11 11 10 9 9 9 9 8 8 8 8 7 7 7 6 6 6 6 6 6 6 5 5 5
18 18 19 19 19 19 19 18 18 17 16 16 15 14 13 13 12 11 11 10 10 10 9 9 8 8 8 8 7 7 7 7 6 6 6 6 5 5 5 5 5 5 4 4
17 17 17 17 18 18 17 17 17 16 15 14 14 13 13 12 11 11 10 9 9 9 8 8 8 7 7 7 7 6 6 6 6 6 5 5 5 5 4 4 4 4 4 4
15 15 16 16 16 16 16 15 15 15 14 13 13 12 12 11 10 10 9 9 9 8 8 7 7 7 6 6 6 6 6 6 5 5 5 5 4 4 4 4 4 3 3 3
13 14 14 14 14 14 14 14 14 13 13 12 12 11 11 10 10 9 9 8 8 7 7 7 6 6 6 6 6 5 5 5 5 5 4 4 4 4 4 3 3 3 3 2
12 12 12 12 12 13 12 12 12 12 12 11 11 10 10 10 9 8 8 8 7 7 6 6 6 6 5 5 5 5 5 5 4 4 4 4 4 3 3 3 3 2 2 2
11 11 11 11 11 11 11 11 10 10 10 10 9 9 9 9 8 8 7 7 7 6 6 6 5 5 5 5 5 5 5 4 4 4 4 4 3 3 3 3 2 2 2 2
10 10 10 10 10 10 10 10 9 9 9 9 8 8 8 8 7 7 7 6 6 6 6 5 5 5 5 5 5 4 4 4 4 4 3 3 3 3 2 2 2 2 1 1
9 9 9 9 9 9 9 9 9 9 8 8 8 8 7 7 7 7 6 6 6 5 5 5 5 5 5 4 4 4 4 4 3 3 3 3 3 2 2 2 1 1 1 1
Wind_Speed
7 7 6 7 8 9 8 9 8 8 7 9 10 10 10 9 9 8 8 8 9 8 8 7 6 6 6 6 6 5 5 4 4 3 2 1 2 2 3 3 4 3 4 5
3 4 5 5 9 10 9 8 8 6 7 8 7 6 6 8 9 9 8 9 9 9 8 7 7 7 7 7 6 5 6 5 4 3 2 2 2 2 2 4 4 3 4 4
4 5 2 6 10 12 8 8 9 10 10 6 6 9 10 10 9 10 9 8 8 9 9 8 8 8 8 8 6 6 6 5 5 4 3 3 2 2 3 3 3 3 4 4
1 1 5 10 7 9 10 9 9 8 8 10 10 9 8 9 10 9 8 8 8 7 7 7 7 7 7 6 6 6 5 5 5 5 4 3 3 3 4 3 3 3 4 4
3 3 7 9 5 7 8 8 9 10 9 8 6 5 1 5 8 9 8 7 6 6 6 6 6 6 6 5 5 5 5 6 6 6 5 4 4 5 4 3 3 4 4 5
4 3 6 9 7 3 6 4 6 10 11 9 9 5 5 6 7 7 7 6 6 5 5 5 5 6 7 5 5 6 6 6 6 6 6 6 6 5 4 3 4 5 5 5
5 5 8 9 4 5 5 8 5 9 10 11 10 8 6 7 7 7 7 7 7 7 5 5 6 7 6 5 5 7 6 5 5 5 6 6 5 4 4 4 4 5 6 6
6 5 9 7 5 7 9 4 4 8 9 9 8 7 8 9 8 8 7 7 7 6 5 3 5 6 5 4 5 5 5 5 5 5 5 4 5 5 4 4 4 5 5 6
10 10 9 7 9 8 7 6 7 8 8 10 10 9 9 8 8 7 7 7 5 6 5 2 3 5 4 3 3 3 3 4 5 5 5 5 5 5 4 3 3 4 4 5
5 8 8 7 6 5 8 8 8 8 10 11 10 10 10 9 8 7 6 6 6 7 6 3 1 2 1 1 1 2 2 3 3 4 5 4 4 4 4 4 4 5 5 5
5 7 4 6 8 8 7 7 8 8 9 11 12 10 10 9 8 8 6 5 6 7 6 4 4 4 3 2 2 2 0 2 3 3 3 4 4 4 5 5 5 5 5 5
8 9 8 10 11 9 9 10 10 10 9 9 11 11 9 9 8 7 7 7 7 7 6 5 5 5 4 3 3 3 3 3 2 2 3 3 3 4 5 5 7 5 5 5
11 10 10 9 9 11 12 12 11 11 11 10 9 9 10 8 7 8 8 9 9 8 7 7 7 6 5 5 4 5 4 3 3 3 3 3 3 3 4 6 8 9 10 10
9 6 6 7 9 11 11 11 10 9 9 10 9 9 10 8 8 9 9 9 9 9 8 7 7 6 5 5 6 6 5 6 5 4 4 4 4 4 3 4 6 7 9 13
12 10 10 8 7 8 8 9 10 10 10 9 9 11 12 11 11 10 9 10 10 10 8 8 8 6 5 6 7 7 5 4 4 4 5 5 5 5 6 6 6 6 7 10
11 7 6 6 8 9 9 11 12 12 12 10 10 11 11 12 11 11 10 10 11 10 8 8 7 5 5 7 7 6 5 9 8 6 6 6 6 6 6 6 7 7 8 8
6 6 6 7 9 10 12 13 14 14 12 12 13 13 13 13 12 11 9 9 10 9 8 8 6 5 6 7 7 5 5 6 10 7 6 6 6 6 6 6 6 7 7 9
8 11 9 10 12 12 11 10 11 13 13 12 15 15 15 15 14 12 11 10 10 9 7 6 6 6 6 6 6 5 5 5 5 5 5 5 5 5 5 6 6 6 5 6
6 7 8 9 10 10 11 11 12 12 13 15 16 14 13 13 13 13 11 11 11 8 4 5 10 7 6 6 7 5 5 5 5 5 4 6 6 5 5 5 5 5 5 5
5 4 5 6 6 7 8 9 11 12 12 15 15 14 13 12 13 13 11 8 6 6 6 7 7 5 4 5 7 4 4 4 4 4 4 4 4 4 4 4 4 4 4 4
5 2 1 3 5 6 8 11 13 13 12 14 15 15 14 13 13 12 11 7 5 6 7 9 6 4 3 4 6 4 4 3 3 3 3 3 3 3 3 3 3 3 3 4
6 4 4 5 7 6 6 8 11 13 12 12 13 14 14 13 11 9 8 7 7 9 6 5 4 4 5 5 4 3 3 3 3 2 2 2 2 2 2 2 2 2 3 3
5 5 5 5 6 7 7 7 9 11 12 13 13 14 13 11 10 10 7 5 6 10 7 5 5 6 6 4 3 3 3 2 2 2 1 1 1 1 1 1 1 2 2 3
3 4 4 4 6 7 7 6 7 7 9 9 10 12 12 9 6 5 6 11 12 10 6 6 7 6 5 3 3 2 2 2 2 1 1 1 1 0 0 1 1 2 3 4
1 1 2 4 5 4 5 7 8 8 8 7 8 9 8 8 7 7 7 9 12 10 5 6 7 5 4 3 3 3 2 3 3 3 2 2 1 1 1 1 2 2 3 3
3 2 2 4 4 5 5 6 6 6 7 6 5 6 6 6 8 8 7 8 9 9 6 4 3 3 3 3 3 3 3 2 2 2 3 2 2 1 1 1 2 2 3 3
3 2 2 2 2 4 5 6 7 6 7 8 6 6 7 7 7 8 8 6 6 5 4 4 4 4 4 3 3 3 3 3 3 3 2 2 2 2 2 2 2 2 3 4
Wind_Direction
228 231 196 206 206 188 177 185 187 222 217 227 214 209 208 201 195 192 197 198 197 203 212 215 212 210 204 206 203 189 182 192 212 222 227 270 325 326 329 343 346 340 344 345
293 254 219 221 217 203 203 199 205 213 240 235 212 191 190 191 188 193 201 202 202 203 204 206 204 203 200 205 203 185 186 203 212 214 224 254 283 302 324 336 336 337 336 335
268 294 343 264 223 203 205 205 189 211 225 199 180 193 195 194 191 197 200 199 196 199 200 202 200 196 196 202 193 185 195 207 208 208 219 241 259 288 306 311 316 316 316 325
216 50 234 246 242 195 201 217 197 196 198 189 193 198 196 185 181 188 190 189 193 195 198 201 198 196 193 185 179 185 198 209 212 209 219 233 246 268 279 283 287 291 296 304
141 222 276 288 263 179 178 236 208 191 192 190 160 106 332 201 176 181 183 181 186 185 182 181 184 180 160 165 175 184 202 213 216 211 216 225 242 256 261 267 279 278 281 289
135 190 249 258 270 176 115 258 235 184 179 167 135 148 234 212 167 163 160 160 158 151 144 156 173 156 145 160 172 198 212 215 215 211 212 224 236 246 248 247 263 281 287 283
171 215 264 258 256 101 143 239 235 179 173 165 175 194 192 169 158 156 154 155 146 137 142 167 166 150 150 163 199 217 212 208 213 218 221 228 238 243 249 259 279 291 293 291
162 194 254 242 158 180 214 226 172 163 165 164 171 160 153 156 157 156 153 152 144 138 146 158 155 149 155 195 228 221 207 213 229 236 237 233 232 251 253 256 276 288 297 300
187 211 234 213 203 212 179 175 176 163 164 152 150 160 162 163 162 162 160 159 149 142 135 124 137 142 155 230 229 200 205 236 254 263 261 252 239 250 259 253 254 272 277 284
234 259 253 234 216 194 183 183 181 169 162 157 160 165 164 162 163 160 156 153 143 133 132 129 110 115 168 257 187 154 197 260 278 287 294 288 265 249 247 252 253 262 264 266
251 271 289 271 233 208 189 171 161 160 165 166 160 164 166 165 164 161 157 151 139 137 134 119 89 66 33 31 97 109 27 328 318 308 304 307 299 265 249 245 235 240 253 250
237 234 208 233 231 209 185 184 177 167 165 168 165 165 162 162 161 154 149 141 132 129 124 112 88 63 31 29 73 87 59 14 351 335 329 325 320 321 303 290 311 300 287 279
234 239 222 237 228 205 196 192 183 174 169 167 162 155 151 151 152 143 137 135 135 131 122 109 89 65 34 33 64 75 63 29 11 10 7 1 1 360 350 354 11 16 7 358
244 231 233 227 218 207 195 186 173 166 165 159 153 146 142 138 138 137 137 136 130 122 115 104 88 63 32 43 61 61 55 46 46 32 24 22 21 21 25 24 18 9 5 11
255 232 226 225 213 193 176 158 157 163 159 153 150 149 145 143 142 138 132 126 117 110 105 100 87 63 38 54 63 58 53 47 46 42 38 37 37 40 42 42 39 24 17 15
248 242 218 202 195 185 171 170 174 176 168 159 156 153 145 137 130 127 126 125 119 115 110 101 91 74 58 62 65 57 51 59 65 56 47 46 45 48 47 46 43 38 32 22
227 224 212 208 203 196 192 189 186 177 168 160 155 145 136 130 126 125 122 118 116 114 110 107 100 80 66 66 71 66 57 56 62 61 54 52 52 50 49 50 48 45 37 31
224 216 206 201 201 204 202 189 175 167 163 157 148 144 144 144 143 140 134 123 111 100 96 107 103 85 67 62 71 70 70 65 61 63 58 57 56 51 53 54 52 50 38 35
250 235 221 213 203 195 188 179 172 164 154 150 150 150 148 144 142 140 136 130 126 122 123 113 106 90 73 66 81 76 78 75 70 65 65 63 59 51 50 50 46 43 40 34
289 260 223 204 180 168 166 159 152 151 151 148 143 140 140 142 142 140 133 130 141 149 148 127 108 97 81 76 84 82 82 83 82 74 69 65 61 53 48 46 43 38 35 31
350 356 111 139 140 140 145 145 145 146 146 146 146 148 145 143 142 140 136 135 156 149 138 128 120 118 106 101 88 87 86 90 91 88 80 73 66 59 51 45 38 33 28 20
8 32 68 101 112 112 121 131 136 137 138 138 139 140 141 142 141 137 141 151 161 151 138 134 141 140 130 106 95 92 94 101 105 105 96 84 76 66 50 37 25 13 4 355
16 38 62 89 112 113 106 116 128 135 140 143 145 148 148 148 149 146 151 164 157 153 147 158 166 149 125 109 108 108 112 119 129 136 129 110 100 91 57 17 354 343 335 331
15 45 63 83 99 109 114 118 118 124 130 135 142 145 143 140 140 149 148 162 165 157 160 181 179 159 134 127 130 138 146 153 162 164 145 131 137 164 227 284 306 312 316 321
326 76 115 123 127 139 139 129 119 120 122 128 136 142 144 147 150 156 153 160 168 163 171 189 183 168 150 151 163 173 185 191 182 174 170 175 201 229 250 269 289 302 308 308
268 222 195 183 171 162 154 144 142 143 139 138 141 145 141 140 143 148 153 164 172 174 178 194 193 174 171 181 188 191 191 194 183 171 182 190 204 216 243 269 297 301 305 307
271 235 179 156 160 161 157 155 156 159 158 155 154 157 152 151 153 160 163 167 171 174 179 185 184 180 181 188 196 198 196 199 199 194 196 201 204 217 242 266 279 292 300 303
Height
1504 1500 1501 1501 1501 1503 1509 1514 1520 1513 1508 1502 1498 1497 1498 1499 1500 1502 1503 1504 1505 1506 1507 1507 1508 1508 1508 1508 1508 1507 1506 1505 1504 1502 1501 1499 1497 1495 1493 1491 1489 1487 1485 1483
1501 1496 1496 1498 1497 1499 1500 1502 1504 1504 1502 1493 1492 1494 1495 1497 1498 1499 1500 1501 1502 1503 1504 1505 1506 1506 1507 1507 1506 1506 1505 1504 1503 1502 1500 1499 1497 1495 1493 1491 1489 1487 1485 1483
1512 1502 1499 1505 1494 1494 1494 1492 1495 1500 1496 1490 1492 1492 1492 1493 1495 1496 1497 1499 1500 1501 1502 1503 1504 1505 1505 1505 1505 1505 1504 1504 1503 1501 1500 1498 1497 1495 1493 1491 1489 1487 1485 1483
1514 1508 1516 1497 1478 1480 1484 1483 1483 1484 1484 1485 1486 1488 1489 1491 1492 1493 1495 1496 1497 1499 1500 1501 1502 1503 1504 1504 1504 1504 1503 1502 1502 1500 1499 1498 1496 1495 1493 1491 1489 1487 1485 1484
1517 1516 1508 1489 1476 1476 1482 1483 1477 1479 1480 1482 1484 1487 1489 1489 1490 1491 1493 1494 1496 1497 1498 1499 1500 1501 1502 1502 1502 1502 1502 1501 1500 1499 1498 1497 1496 1494 1492 1491 1489 1487 1485 1484
1515 1513 1513 1490 1472 1469 1476 1483 1472 1473 1476 1480 1483 1491 1488 1487 1488 1490 1491 1493 1494 1495 1496 1498 1499 1500 1500 1500 1501 1500 1500 1500 1499 1498 1497 1496 1495 1493 1492 1490 1489 1487 1485 1483
1511 1511 1501 1478 1471 1472 1490 1484 1468 1469 1472 1475 1478 1480 1482 1484 1486 1488 1490 1491 1493 1494 1495 1496 1497 1498 1498 1499 1499 1499 1498 1498 1497 1496 1495 1494 1493 1492 1491 1489 1488 1486 1484 1483
1509 1510 1501 1469 1470 1474 1473 1466 1466 1467 1469 1472 1474 1477 1480 1482 1484 1486 1488 1490 1491 1492 1493 1494 1495 1496 1496 1496 1497 1497 1496 1496 1495 1495 1494 1493 1491 1490 1489 1487 1486 1484 1483 1481
1487 1484 1467 1463 1463 1463 1464 1464 1465 1466 1468 1471 1473 1476 1478 1481 1483 1485 1486 1488 1489 1490 1491 1492 1493 1494 1494 1494 1494 1494 1494 1493 1493 1492 1491 1490 1489 1488 1487 1485 1484 1482 1480 1479
1476 1469 1462 1460 1460 1461 1462 1462 1463 1465 1467 1469 1471 1473 1476 1478 1480 1482 1484 1486 1487 1488 1489 1490 1491 1491 1491 1492 1492 1491 1491 1491 1490 1489 1488 1487 1486 1485 1483 1482 1481 1479 1478 1476
1471 1464 1460 1459 1458 1458 1459 1461 1462 1463 1465 1467 1469 1471 1473 1475 1478 1480 1482 1483 1485 1486 1487 1488 1488 1488 1489 1489 1489 1488 1488 1487 1487 1486 1485 1483 1482 1482 1480 1479 1478 1476 1475 1473
1466 1458 1458 1455 1454 1456 1456 1457 1459 1460 1462 1464 1466 1468 1470 1473 1475 1477 1479 1481 1482 1483 1484 1485 1485 1486 1486 1486 1486 1485 1485 1484 1483 1482 1481 1480 1479 1478 1477 1476 1474 1473 1471 1470
1452 1451 1451 1450 1450 1451 1452 1453 1455 1456 1458 1461 1463 1465 1467 1469 1472 1474 1476 1478 1479 1480 1482 1482 1483 1483 1483 1483 1483 1482 1482 1481 1480 1479 1478 1476 1475 1474 1473 1472 1471 1469 1468 1466
1447 1446 1445 1445 1445 1445 1447 1448 1451 1453 1455 1457 1459 1462 1464 1466 1469 1471 1473 1475 1476 1478 1479 1480 1480 1481 1481 1480 1480 1480 1479 1478 1477 1476 1475 1474 1472 1471 1470 1468 1467 1466 1465 1463
1440 1440 1439 1438 1439 1440 1442 1444 1446 1448 1450 1453 1456 1458 1460 1463 1465 1468 1470 1472 1474 1475 1477 1477 1478 1478 1478 1478 1478 1477 1477 1476 1475 1474 1473 1472 1471 1469 1468 1466 1465 1464 1462 1461
1432 1432 1432 1433 1433 1434 1436 1438 1440 1442 1445 1447 1451 1454 1457 1460 1463 1465 1467 1469 1471 1473 1474 1475 1476 1476 1476 1476 1476 1475 1475 1474 1474 1473 1472 1470 1469 1468 1466 1465 1463 1462 1460 1459
1426 1426 1426 1427 1428 1429 1430 1432 1434 1436 1440 1443 1446 1450 1453 1457 1459 1462 1465 1467 1469 1471 1472 1473 1474 1474 1475 1475 1474 1474 1474 1473 1472 1471 1470 1469 1468 1467 1466 1464 1463 1461 1460 1459
1420 1420 1421 1421 1422 1423 1425 1427 1430 1432 1435 1439 1443 1447 1450 1453 1456 1459 1462 1464 1467 1468 1470 1471 1472 1473 1473 1473 1473 1473 1473 1472 1471 1471 1470 1469 1468 1467 1466 1464 1463 1462 1460 1459
1414 1414 1415 1415 1416 1417 1419 1421 1424 1428 1432 1435 1439 1443 1447 1450 1454 1457 1460 1462 1464 1466 1468 1469 1470 1471 1471 1472 1472 1472 1472 1471 1471 1470 1470 1469 1468 1467 1466 1464 1463 1461 1460 1458
1409 1409 1409 1410 1411 1413 1414 1417 1420 1424 1428 1432 1436 1440 1444 1448 1451 1455 1458 1460 1463 1465 1466 1468 1469 1470 1470 1471 1471 1471 1471 1470 1470 1470 1469 1468 1467 1466 1465 1464 1462 1461 1459 1458
1406 1405 1405 1406 1407 1409 1412 1414 1417 1421 1425 1429 1433 1437 1441 1445 1449 1452 1455 1458 1461 1463 1465 1466 1467 1468 1469 1469 1470 1470 1470 1470 1469 1469 1468 1467 1466 1465 1464 1463 1461 1460 1458 1456
1408 1406 1406 1406 1407 1409 1411 1414 1417 1420 1424 1428 1432 1435 1439 1443 1447 1451 1454 1457 1459 1461 1463 1465 1466 1467 1467 1468 1468 1469 1469 1468 1468 1468 1467 1466 1465 1464 1463 1461 1460 1458 1456 1454
1411 1410 1409 1409 1409 1410 1412 1415 1417 1420 1423 1427 1430 1433 1437 1441 1444 1448 1451 1455 1457 1459 1461 1463 1464 1465 1466 1466 1467 1467 1467 1467 1467 1466 1465 1465 1464 1462 1461 1459 1458 1456 1454 1452
1414 1413 1412 1412 1412 1413 1414 1416 1419 1422 1424 1427 1430 1433 1437 1440 1444 1447 1450 1453 1455 1458 1459 1461 1462 1463 1464 1465 1465 1465 1465 1465 1465 1464 1463 1463 1461 1460 1459 1457 1455 1453 1451 1448
1416 1414 1414 1413 1414 1414 1416 1417 1420 1422 1425 1428 1431 1434 1436 1439 1442 1445 1448 1451 1454 1456 1458 1459 1461 1461 1462 1463 1463 1463 1463 1463 1462 1462 1461 1460 1459 1457 1456 1454 1452 1449 1447 1444
1415 1414 1413 1413 1414 1415 1416 1418 1419 1422 1424 1427 1430 1433 1436 1439 1442 1444 1447 1450 1452 1454 1456 1457 1458 1459 1460 1460 1460 1461 1460 1460 1460 1459 1458 1456 1455 1454 1452 1450 1447 1445 1442 1439
1413 1412 1412 1412 1413 1414 1415 1417 1419 1421 1423 1426 1428 1431 1434 1437 1440 1443 1445 1448 1450 1452 1453 1455 1456 1456 1457 1457 1457 1457 1457 1457 1456 1455 1454 1452 1451 1449 1447 1445 1442 1440 1436 1433